GW1942 Weather Reports


time (UTC)temp
C
wind
direction
speed
KPH
gust
KPH
rain 1hr
cm
rain 24hr
cm
rain mn
cm
humidity
%
barometer
mb
20260905103017 3 162 0.0 0.0 0.00 0.05 0.00 94 1018.0
20260905101505 3 162 0.0 0.0 0.00 0.05 0.00 93 1017.9
20260905100002 4 162 0.0 0.0 0.00 0.05 0.00 93 1017.8
20260905094504 5 161 0.0 0.0 0.00 0.36 0.00 94 1017.9
20260905093100 5 161 0.0 0.0 0.00 0.36 0.00 94 1017.9
20260905091621 4 162 0.0 3.2 0.00 0.36 0.00 93 1017.8
20260905090118 4 162 0.0 1.6 0.00 0.36 0.00 92 1017.6
20260905084606 5 162 0.0 1.6 0.00 0.36 0.00 94 1017.6
20260905083052 5 162 0.0 0.0 0.00 0.36 0.00 93 1017.4
20260905081552 5 162 0.0 0.0 0.00 0.36 0.00 91 1017.2
20260905080053 6 162 0.0 3.2 0.00 0.36 0.00 89 1017.2
20260905074545 6 162 0.0 3.2 0.00 0.38 0.00 90 1017.4
20260905073051 6 162 0.0 1.6 0.00 0.38 0.00 92 1017.6
20260905071545 6 162 0.0 1.6 0.00 0.38 0.00 89 1017.2
20260905070041 6 162 0.0 3.2 0.00 0.38 0.00 92 1016.9
20260905064541 6 162 0.0 0.0 0.00 0.38 0.00 89 1016.7
20260905063035 7 162 0.0 1.6 0.00 0.38 0.00 89 1016.8
20260905061536 7 162 0.0 0.0 0.00 0.38 0.00 88 1016.7
20260905060028 8 162 0.0 0.0 0.00 0.38 0.00 88 1016.7
20260905054526 8 162 0.0 1.6 0.00 0.38 0.38 88 1016.7
20260905053026 9 161 0.0 0.0 0.00 0.38 0.38 85 1016.8
20260905051534 10 161 0.0 0.0 0.00 0.38 0.38 81 1016.7
20260905050029 10 162 0.0 1.6 0.00 0.38 0.38 85 1016.8
20260905044532 10 162 0.0 1.6 0.00 0.38 0.38 83 1016.7
20260905043027 10 162 0.0 1.6 0.00 0.38 0.38 81 1016.5
20260905041522 11 161 0.0 3.2 0.00 0.38 0.38 75 1016.5
20260905040021 12 162 3.2 4.8 0.00 0.38 0.38 72 1016.3
20260905034521 12 161 0.0 0.0 0.00 0.38 0.38 77 1016.5
20260905033029 13 162 0.0 4.8 0.00 0.38 0.38 68 1016.3
20260905031517 12 162 0.0 3.2 0.00 0.38 0.38 73 1016.1
20260905030031 13 162 0.0 1.6 0.00 0.38 0.38 73 1016.0
20260905024518 13 162 0.0 3.2 0.00 0.38 0.38 69 1015.8
20260905023014 13 161 0.0 0.0 0.00 0.38 0.38 71 1015.6
20260905021511 15 162 0.0 1.6 0.00 0.38 0.38 63 1015.4
20260905020011 15 162 0.0 1.6 0.00 0.38 0.38 64 1015.4
20260905014510 16 162 0.0 1.6 0.00 0.38 0.38 57 1015.3
20260905013012 16 162 0.0 4.8 0.00 0.38 0.38 55 1015.2
20260905011508 18 162 0.0 1.6 0.00 0.38 0.38 50 1014.9
20260905010008 17 162 0.0 3.2 0.00 0.38 0.38 52 1014.9
20260905004506 16 162 0.0 3.2 0.00 0.38 0.38 54 1014.9
20260905003006 17 162 0.0 1.6 0.00 0.38 0.38 53 1015.1
20260905001516 17 162 0.0 6.4 0.00 0.38 0.38 52 1015.2
20260905000005 18 162 1.6 9.7 0.00 0.38 0.38 51 1014.8
20260904234505 17 161 0.0 4.8 0.00 0.38 0.38 58 1014.9
20260904233007 17 162 1.6 6.4 0.00 0.38 0.38 54 1014.8
20260904231503 17 161 0.0 8.0 0.00 0.38 0.38 53 1015.0
20260904230112 18 162 1.6 6.4 0.00 0.38 0.38 54 1014.9
20260904224601 16 162 1.6 4.8 0.00 0.38 0.38 56 1015.0
20260904223130 16 161 0.0 3.2 0.00 0.38 0.38 57 1015.1
20260904221559 16 162 1.6 3.2 0.00 0.38 0.38 59 1015.0
20260904220056 16 162 0.0 3.2 0.00 0.38 0.38 63 1015.0
20260904214602 16 161 4.8 8.0 0.00 0.38 0.38 57 1015.1
20260904213055 16 162 0.0 4.8 0.00 0.38 0.38 58 1015.1
20260904211554 17 162 1.6 3.2 0.00 0.38 0.38 57 1015.0
20260904210101 17 162 1.6 4.8 0.00 0.38 0.38 57 1014.8
20260904204552 16 162 1.6 8.0 0.00 0.38 0.38 60 1014.7
20260904203056 16 162 0.0 3.2 0.00 0.38 0.38 62 1014.5
20260904201543 15 161 1.6 3.2 0.00 0.38 0.38 67 1014.5
20260904200039 15 162 0.0 3.2 0.00 0.38 0.38 69 1014.6
20260904194537 14 161 0.0 3.2 0.00 0.38 0.38 71 1014.7
20260904193035 14 162 0.0 3.2 0.00 0.38 0.38 74 1014.5
20260904191531 13 162 0.0 3.2 0.00 0.38 0.38 77 1014.6
20260904190034 13 162 0.0 3.2 0.00 0.38 0.38 76 1014.5
20260904184528 12 161 1.6 4.8 0.00 0.38 0.38 80 1014.6
20260904183027 12 162 0.0 3.2 0.00 0.38 0.38 76 1014.5
20260904181531 12 161 0.0 3.2 0.00 0.38 0.38 78 1014.4
20260904180023 12 162 1.6 4.8 0.00 0.38 0.38 79 1014.3
20260904174519 12 161 0.0 4.8 0.00 0.38 0.38 84 1014.3
20260904173041 11 161 0.0 1.6 0.00 0.38 0.38 83 1014.3
20260904171513 11 162 0.0 1.6 0.00 0.38 0.38 85 1014.4
20260904170010 10 161 0.0 0.0 0.00 0.38 0.38 88 1014.0
20260904164505 10 162 0.0 0.0 0.00 0.38 0.38 90 1014.0
20260904163004 10 162 0.0 1.6 0.00 0.38 0.38 90 1013.9
20260904161507 10 162 0.0 3.2 0.00 0.38 0.38 90 1013.7
20260904160003 10 162 1.6 3.2 0.00 0.38 0.38 91 1013.4
20260904154559 10 162 0.0 3.2 0.00 0.38 0.38 91 1013.1
20260904153100 9 162 0.0 1.6 0.03 0.38 0.38 92 1013.1
20260904151601 9 162 0.0 1.6 0.03 0.38 0.38 93 1012.9
20260904150056 9 162 1.6 3.2 0.03 0.38 0.38 93 1012.8
20260904144609 9 162 0.0 1.6 0.03 0.38 0.38 94 1012.7
20260904143059 8 162 0.0 0.0 0.00 0.36 0.36 94 1012.7
20260904141556 8 162 0.0 0.0 0.00 0.36 0.36 95 1012.5
20260904140050 8 162 0.0 1.6 0.00 0.36 0.36 95 1012.3
20260904134547 8 162 0.0 0.0 0.00 0.36 0.36 94 1012.2
20260904133056 8 161 0.0 0.0 0.00 0.36 0.36 94 1011.9
20260904131547 8 162 0.0 1.6 0.00 0.36 0.36 94 1011.8
20260904130044 8 162 0.0 1.6 0.00 0.36 0.36 93 1011.4
20260904124542 8 162 0.0 0.0 0.00 0.36 0.36 93 1011.0
20260904123039 8 162 0.0 1.6 0.00 0.36 0.36 93 1010.9
20260904121537 8 162 0.0 4.8 0.00 0.36 0.36 93 1010.7
20260904120037 8 162 0.0 3.2 0.00 0.36 0.36 93 1010.7
20260904114535 8 162 0.0 3.2 0.00 0.38 0.36 91 1009.9
20260904113034 8 162 1.6 8.0 0.00 0.38 0.36 91 1009.7
20260904111532 8 162 3.2 6.4 0.00 0.38 0.36 92 1009.7
20260904110032 8 161 0.0 3.2 0.03 0.38 0.36 94 1010.0
20260904104530 8 162 0.0 1.6 0.10 0.38 0.36 93 1010.0